Location: Baumgartsau
(48.4586°N, 14.0864°E)
Time: 01:06:30
(UTC+00:00)

ATLAS CENTAUR R/B - Pass Details

Date: 09 April 2020
Orbit: 471 x 675 km, 64.7° (Epoch: 01 June)

Event Time Altitude Azimuth Distance (km) Brightness Sun altitude
Rises 20:16:43 0° 323° (NW) 2,683 6.3 -22.5°
Reaches altitude 10° 20:19:02 10° 329° (NNW) 1,757 4.9 -22.8°
Enters shadow 20:22:26 47° 23° (NNE) 676 1.8 -23.2°
